Location: Feydey
(46.3431°N, 7.0106°E)
Time: 06:56:47
(UTC+00:00)

Cosmos 1802 Rocket - Pass Details

Date: 20 June 2021
Orbit: 955 x 1010 km, 82.9° (Epoch: 28 July)

Event Time Altitude Azimuth Distance (km) Brightness Sun altitude
Rises 20:47:00 0° 351° (N) 3,687 8.2 -10.7°
Reaches altitude 10° 20:49:30 10° 351° (N) 2,743 7.4 -10.9°
Maximum altitude 20:55:49 90° 21° (NNE) 998 4.1 -11.6°
Enters shadow 21:01:54 11° 174° (S) 2,658 5.8 -12.2°
